RH
81 79 79 78 78 79 79 82 82 84 90 96 96 95 93 94 82 81 80 85 85 84 78 82 85 84 89 91 97 97 93 95 98 100 100 100 100 100 100 100 99 99 97
80 81 82 81 79 81 86 86 85 96 97 98 98 98 97 95 83 82 84 86 88 91 88 95 96 93 99 97 96 98 96 98 100 100 100 100 100 100 100 100 100 100 97
83 84 84 86 89 92 91 91 92 97 99 99 98 98 99 100 99 94 95 99 100 100 100 97 100 100 100 99 98 99 99 100 100 99 99 100 100 99 99 98 98 98 99
88 88 90 91 92 94 94 94 93 95 99 100 100 100 100 100 100 98 100 100 100 100 100 100 100 100 99 100 100 100 100 99 99 96 97 97 95 98 95 95 97 97 97
93 93 93 92 93 94 93 94 93 96 98 100 100 100 100 100 100 100 99 100 100 100 100 100 100 100 99 97 98 100 99 99 97 95 95 94 95 96 92 96 95 95 96
95 94 93 93 93 92 93 94 94 96 98 98 98 99 100 100 98 97 98 99 99 100 100 100 100 100 98 97 96 94 92 96 95 93 92 90 91 88 96 94 93 95 95
95 93 93 93 94 94 94 92 94 94 96 97 94 97 98 100 98 98 98 99 99 99 99 99 100 99 98 98 96 95 94 89 85 87 91 90 93 92 93 96 95 94 93
95 96 94 94 95 93 93 92 94 95 96 97 96 95 96 98 94 94 93 95 96 98 98 98 98 98 97 95 94 96 97 96 93 89 85 89 86 95 93 92 94 94 94
97 96 96 95 95 94 94 95 94 94 94 97 97 97 96 97 97 93 91 94 95 97 97 97 96 97 98 93 91 93 96 98 96 96 94 92 94 94 92 91 96 95 85
97 97 96 95 96 96 96 96 97 97 97 93 93 97 97 97 97 96 94 92 95 95 97 97 98 97 97 96 94 93 94 96 95 96 96 95 93 93 89 81 78 73 73
97 95 92 92 94 93 91 93 96 94 91 95 95 95 97 97 98 96 94 94 94 94 93 96 97 95 96 96 94 90 89 88 92 88 85 82 79 76 70 69 68 57 68
94 91 90 91 91 91 90 85 84 85 85 85 86 91 91 97 96 96 94 95 94 92 95 96 97 96 96 92 87 88 87 84 84 84 80 76 72 69 71 72 77 77 75
92 95 94 91 90 89 87 84 80 82 83 83 82 87 89 91 91 88 86 86 87 88 88 86 80 78 79 80 81 82 80 81 82 80 76 72 74 72 78 80 86 87 89
94 96 97 96 95 95 87 87 86 85 85 84 84 87 88 87 88 91 88 85 84 85 84 85 81 82 83 82 76 73 75 75 71 72 77 80 78 75 75 73 72 71 75
96 96 96 96 98 97 98 96 96 96 88 94 97 95 94 93 89 79 84 89 89 88 91 87 81 76 74 73 74 77 76 71 72 78 80 80 79 77 77 77 76 76 67
93 94 96 96 97 97 98 98 80 78 77 79 79 84 88 76 75 76 77 76 72 66 92 92 89 84 78 76 77 76 75 75 75 78 81 79 78 78 79 82 79 74 68
90 90 95 96 97 98 96 100 96 92 83 80 77 75 76 74 72 73 74 80 81 76 91 93 94 92 87 82 81 76 73 75 83 77 75 77 80 81 81 80 79 77 77
90 92 92 94 96 96 96 99 100 95 96 97 91 90 80 74 73 74 83 87 96 96 96 96 92 90 94 94 94 93 90 82 76 71 72 78 82 81 85 81 82 82 79
90 91 94 95 96 95 96 96 95 94 94 96 100 87 98 92 81 70 83 95 97 99 98 96 95 95 94 92 90 91 88 90 90 90 85 83 82 79 77 78 77 86 87
88 91 90 93 97 97 96 96 97 96 96 97 100 100 97 94 98 99 99 100 99 97 97 97 96 96 95 94 94 94 93 91 88 85 83 86 85 84 80 81 84 83 86
86 92 94 96 96 97 96 97 96 97 96 97 95 94 93 94 95 95 96 98 99 100 98 98 98 97 97 96 94 95 94 91 92 91 89 87 88 88 86 83 84 87 84
83 87 94 92 95 96 96 94 97 97 98 97 96 91 83 97 96 96 96 95 96 96 96 96 97 97 97 97 96 96 96 96 95 94 93 93 93 92 91 92 93 93 93
86 88 92 96 94 96 97 97 97 97 96 94 94 93 96 96 96 96 96 96 96 95 96 97 97 97 96 96 96 95 95 95 94 94 94 94 94 94 94 93 93 94 94
84 84 86 92 96 96 95 94 95 94 94 93 94 96 95 97 97 97 97 97 97 99 98 99 99 98 98 97 97 96 96 95 95 95 94 94 94 94 94 94 93 93 93
86 88 87 86 89 91 92 93 92 93 94 94 96 96 96 97 96 96 96 96 96 96 97 98 98 98 97 97 96 95 94 94 95 95 96 95 95 95 95 94 94 94 94
92 92 94 91 91 91 91 91 92 93 96 97 97 97 96 96 96 96 96 96 96 96 96 96 95 94 94 94 94 93 93 92 94 94 95 95 95 96 96 96 96 96 96
Wind_Speed
12 13 15 15 16 15 16 15 16 17 16 17 14 15 15 15 16 15 16 12 11 12 15 18 16 17 11 12 8 6 8 5 7 1 3 3 5 9 5 4 14 13 14
13 13 14 15 16 16 16 17 17 16 15 14 14 13 13 14 14 14 14 13 14 13 13 10 16 10 12 13 11 10 9 5 5 7 3 3 4 8 6 10 5 6 10
13 13 14 14 14 15 16 16 15 15 14 12 13 14 14 14 13 12 9 8 6 7 7 10 10 13 10 9 10 10 8 4 5 6 5 3 3 8 9 8 8 8 7
12 12 12 13 14 14 14 15 14 14 13 10 9 12 13 12 12 10 9 9 7 7 11 10 9 12 14 13 11 11 9 9 9 9 8 6 6 6 8 11 9 6 6
11 11 12 12 13 13 13 14 13 12 12 10 7 6 9 10 9 11 13 12 10 11 12 11 10 9 13 16 12 12 13 8 8 9 8 7 8 12 13 8 8 7 4
11 10 11 12 12 13 13 13 13 12 12 10 9 6 3 7 15 20 14 10 11 9 7 4 4 8 15 15 14 19 17 15 11 8 5 11 12 12 8 11 11 8 5
10 10 10 11 12 12 12 12 13 13 12 12 13 12 10 9 5 12 12 4 5 5 6 8 8 6 12 14 18 19 14 13 12 8 14 11 12 12 13 13 12 8 4
8 10 9 11 11 12 11 12 12 11 11 10 12 13 12 11 19 21 22 13 12 11 10 9 11 11 12 15 16 15 12 10 8 6 8 10 10 13 11 10 10 10 8
7 10 10 10 11 11 11 11 11 10 10 11 10 13 14 14 22 22 19 14 15 15 13 12 13 13 17 22 16 15 16 12 16 21 20 22 24 24 18 13 8 9 4
7 8 8 7 8 10 11 10 8 8 8 9 13 14 16 16 26 24 18 12 16 12 13 14 23 17 21 20 15 16 15 10 13 14 14 17 16 18 17 7 11 9 5
6 6 6 6 5 6 6 7 9 8 9 11 13 14 15 16 20 28 26 13 11 11 11 10 10 25 24 21 18 12 14 14 20 15 12 9 9 8 6 5 6 5 4
4 4 5 6 5 5 5 7 8 8 10 11 11 11 11 13 21 26 28 25 20 13 12 9 11 23 22 22 17 26 25 17 11 11 10 9 8 6 6 7 7 7 5
3 4 4 5 6 6 6 8 6 8 7 8 8 9 9 8 9 23 24 24 22 14 10 19 23 23 23 20 21 22 12 8 10 9 9 7 3 6 7 5 8 10 10
1 2 2 3 4 6 5 5 6 7 6 6 6 7 6 7 7 7 7 8 15 12 16 11 16 17 18 13 9 10 6 7 7 8 7 6 5 3 3 2 3 2 3
3 3 1 1 2 2 2 2 3 1 4 2 3 3 5 7 7 11 9 6 6 10 7 5 5 5 7 7 8 7 6 6 7 5 6 5 5 4 2 1 2 2 2
3 3 2 1 2 2 2 4 11 10 13 13 12 10 5 12 14 15 17 16 14 9 6 5 5 5 6 4 5 5 5 5 4 5 5 4 4 4 4 2 1 1 2
7 5 3 2 1 0 1 2 3 4 11 13 11 11 11 9 9 9 10 13 12 9 4 3 4 4 3 4 4 2 3 2 3 4 5 5 5 3 4 3 2 2 2
6 6 4 3 3 2 1 2 2 2 1 2 3 6 6 7 8 8 9 7 4 5 2 2 3 4 3 4 4 4 4 4 2 3 3 3 5 4 4 4 5 4 4
6 4 4 4 3 4 3 3 2 2 1 1 3 4 7 9 6 4 7 3 2 2 2 2 2 3 3 3 3 3 3 4 3 4 3 4 5 4 4 4 5 6 5
7 8 6 4 3 3 2 3 3 2 1 1 0 1 2 3 3 3 3 3 2 2 1 1 2 2 2 3 2 2 3 3 4 4 5 5 5 5 5 4 5 5 7
7 6 7 4 4 4 4 5 4 3 3 3 3 4 6 2 2 2 1 2 2 3 3 3 3 3 2 2 2 2 3 3 4 4 4 5 5 5 6 6 6 6 5
7 7 6 7 5 5 5 4 4 4 4 4 3 3 8 5 4 3 3 3 3 3 3 3 3 3 3 4 4 5 6 6 5 6 6 6 6 7 6 7 7 7 7
6 7 7 4 6 6 5 5 4 4 4 5 4 4 4 5 5 5 4 4 3 3 1 2 3 3 3 4 4 5 6 6 6 6 6 6 6 6 6 7 7 6 7
7 8 7 5 5 5 5 5 5 6 6 5 5 4 4 4 4 4 3 3 2 2 2 2 2 4 3 4 3 4 4 4 4 5 8 6 6 6 5 5 6 7 5
6 6 6 7 7 6 5 5 5 5 5 5 4 5 5 3 3 4 3 2 0 1 1 2 2 3 4 5 5 6 6 7 6 5 4 5 6 7 5 5 5 5 5
5 4 2 3 4 4 4 5 5 4 4 4 3 3 4 4 4 3 2 2 2 1 0 0 1 2 3 3 3 3 4 6 5 6 4 4 5 4 4 4 6 4 5
Wind_Direction
315 314 313 312 308 303 299 292 289 286 280 280 245 242 239 239 238 234 240 249 241 231 227 231 237 223 212 198 184 170 200 204 199 72 118 136 155 155 126 134 150 153 149
316 315 319 314 314 312 305 300 297 289 281 271 256 236 234 237 237 239 241 239 231 235 238 257 228 215 194 178 180 174 179 175 119 155 127 126 144 141 116 108 74 108 143
317 322 322 318 316 312 310 308 305 298 289 272 254 236 229 227 228 231 238 248 231 243 249 236 233 209 188 181 182 167 155 117 129 148 128 128 116 140 128 95 102 94 95
320 324 322 322 318 313 314 314 317 315 302 287 254 238 229 220 219 223 224 223 229 240 251 244 229 199 182 167 158 148 139 127 125 127 107 109 124 127 125 130 116 124 104
319 323 321 320 319 317 323 324 324 328 322 314 300 252 228 220 220 216 219 218 226 234 245 236 211 179 170 170 155 155 136 134 138 136 121 141 136 154 160 148 129 115 60
314 319 321 327 326 329 331 333 331 341 338 345 356 352 299 221 219 213 207 207 216 211 189 139 129 148 148 147 145 151 148 140 140 130 147 158 160 165 143 151 141 143 146
314 320 328 336 337 335 333 344 349 354 351 1 12 18 22 11 134 200 184 133 125 120 137 132 111 107 116 110 104 99 98 124 135 135 149 158 158 159 143 145 152 146 108
322 322 339 344 337 335 338 357 349 357 7 7 17 29 31 47 70 90 88 84 77 68 68 81 92 93 99 105 97 85 76 65 77 95 132 132 134 135 134 136 124 98 76
346 338 340 348 340 337 346 353 358 4 14 18 21 32 43 51 62 73 79 77 72 66 60 66 81 85 92 98 94 94 83 78 93 99 107 117 125 124 123 121 126 125 101
332 325 325 339 346 348 341 346 352 4 12 28 32 34 44 54 58 65 70 73 72 66 65 66 76 86 91 94 103 104 101 105 105 96 88 92 96 116 136 137 147 134 123
302 313 325 331 332 329 337 349 351 14 31 36 41 35 37 48 58 63 65 67 72 69 64 61 66 81 87 91 94 100 110 112 94 89 86 80 71 70 74 71 61 112 123
319 333 339 336 346 344 354 352 3 15 29 34 39 42 33 44 60 68 70 71 74 78 73 69 76 86 94 99 97 107 106 102 101 101 104 87 84 80 73 70 74 71 48
10 345 350 352 3 359 16 10 16 18 29 30 38 37 32 28 37 57 72 79 81 82 86 91 91 94 93 87 91 92 84 87 92 101 94 84 92 119 116 79 70 75 68
108 335 335 27 15 12 16 29 27 25 28 25 35 44 43 40 40 34 48 52 65 74 88 83 85 85 82 84 74 63 68 81 98 99 96 103 110 83 90 72 100 93 88
199 240 239 138 90 74 32 63 49 27 65 62 22 16 37 49 54 70 74 67 80 89 93 76 66 64 73 65 62 56 56 71 90 100 121 120 115 115 100 75 96 101 108
202 247 253 303 12 35 36 31 57 70 70 74 63 57 47 65 73 82 84 74 64 63 46 56 56 51 71 78 79 76 58 72 84 114 115 121 136 151 139 157 137 121 139
195 203 207 205 197 138 34 43 32 5 49 60 73 90 90 88 77 86 85 66 63 93 90 91 101 94 105 98 98 96 127 132 156 142 140 145 141 147 169 181 162 156 181
184 187 193 196 187 169 164 132 112 100 102 302 16 61 66 98 103 106 111 103 53 40 76 119 136 140 155 165 168 158 155 157 141 135 127 160 176 163 176 198 195 189 199
179 192 182 181 187 185 167 155 143 141 112 24 340 351 1 7 15 65 97 113 113 96 128 131 154 170 181 184 179 171 163 167 166 165 193 189 195 191 211 210 204 199 179
192 184 182 175 165 162 158 148 158 167 162 211 252 250 321 18 16 349 6 9 1 340 317 258 206 200 202 199 193 183 183 187 195 205 209 204 204 200 221 208 208 209 213
187 171 159 152 170 177 176 192 204 195 202 206 216 212 195 161 218 218 239 244 253 258 265 265 280 275 257 239 211 203 217 226 214 217 214 216 197 214 216 219 212 210 214
178 174 173 186 170 183 193 194 190 196 199 209 229 238 220 194 208 220 221 226 215 214 206 208 226 218 212 208 202 200 204 215 215 212 212 208 204 212 209 214 213 212 208
173 171 175 176 181 165 176 181 190 197 210 220 225 228 208 214 211 212 208 193 169 174 192 204 215 237 236 220 202 208 208 210 211 200 212 214 211 209 203 206 204 202 201
181 183 180 172 162 184 190 194 186 200 213 215 206 210 226 222 215 201 161 128 155 179 196 230 229 227 240 247 230 214 220 221 212 209 210 207 207 198 193 192 196 194 186
172 171 177 180 177 176 180 194 205 208 210 207 204 213 213 193 127 104 97 97 48 295 255 233 230 231 225 222 226 223 224 230 205 199 199 193 192 187 184 184 176 176 162
133 131 118 153 159 166 180 185 201 196 206 203 204 91 91 95 93 97 106 117 132 150 132 137 143 191 184 186 188 207 218 219 209 189 179 177 178 177 167 154 152 148 142